Simultaneous Nadir Overpasses (SNOs) Predictions

Prediction of SNOs between METOP-B and NOAA-19 Satellite Orbit:

Table of predicted SNOs for the next 14.0 days since TLE Epoch: 12/29/2017
Index Date (METOP-B) Time (METOP-B) Lat,Lon (METOP-B) SZA (METOP-B ) Date (NOAA-19) Time (NOAA-19) Lat,Lon (NOAA-19) SZA (NOAA-19 ) Distance(km) Time Diff (sec)
1 01/05/2018 17:44:52 -77.89, 101.49 79.56 01/05/2018 17:43:44 -77.90, 101.38 79.56 2.84 68
2 01/05/2018 18:35:32 77.88, -91.25 100.42 01/05/2018 18:34:43 77.88, -91.29 100.43 1.43 49
3 01/05/2018 19:26:14 -77.87, 76.07 79.59 01/05/2018 19:25:45 -77.89, 75.95 79.58 3.10 29
4 01/05/2018 20:16:54 77.86,-116.67 100.40 01/05/2018 20:16:44 77.87,-116.72 100.41 1.89 10
5 01/05/2018 21:07:36 -77.86, 50.64 79.62 01/05/2018 21:07:45 -77.83, 50.73 79.63 3.26 9
6 01/05/2018 21:58:16 77.84,-142.09 100.37 01/05/2018 21:58:45 77.86,-142.15 100.39 2.37 29
7 01/05/2018 22:48:58 -77.84, 25.22 79.64 01/05/2018 22:49:46 -77.82, 25.30 79.66 2.88 48
8 01/05/2018 23:39:38 77.82,-167.52 100.34 01/05/2018 23:40:46 77.85,-167.59 100.37 2.86 68




NCC Satellite Simultaneous Nadir Overpasses (SNOs) Prediction Service
